Time,TemperatureF,DewpointF,PressureIn,WindDirection,WindDirectionDegrees,WindSpeedMPH,WindSpeedGustMPH,Humidity,HourlyPrecipIn,Conditions,Clouds,dailyrainin,SolarRadiationWatts/m^2,SoftwareType,DateUTC
2013-09-30 00:02:00,39.0,38.0,-100.00,SSE,163,3.0,9.0,96,0.08,,,0.64,0.000000,,2013-09-30 06:02:00,
2013-09-30 00:12:00,39.0,38.0,-100.00,SSE,163,3.0,9.0,96,0.08,,,0.64,0.000000,,2013-09-30 06:12:00,
2013-09-30 00:42:00,38.0,36.0,-100.00,South,183,4.0,10.0,94,0.05,,,0.69,0.000000,,2013-09-30 06:42:00,
2013-09-30 00:52:00,38.0,36.0,-100.00,South,183,4.0,10.0,94,0.05,,,0.69,0.000000,,2013-09-30 06:52:00,
2013-09-30 01:01:00,38.0,36.0,-100.00,South,183,4.0,10.0,94,0.05,,,0.69,0.000000,,2013-09-30 07:01:00,
2013-09-30 01:12:00,38.0,36.0,-100.00,South,183,4.0,10.0,94,0.05,,,0.69,0.000000,,2013-09-30 07:12:00,
2013-09-30 01:42:00,38.0,36.0,-100.00,SW,223,4.0,11.0,94,0.06,,,0.75,0.000000,,2013-09-30 07:42:00,
2013-09-30 01:53:00,38.0,36.0,-100.00,SW,223,4.0,11.0,94,0.06,,,0.75,0.000000,,2013-09-30 07:53:00,
2013-09-30 02:02:00,38.0,36.0,-100.00,SW,223,4.0,11.0,94,0.06,,,0.75,0.000000,,2013-09-30 08:02:00,
2013-09-30 02:12:00,38.0,36.0,-100.00,SW,223,4.0,11.0,94,0.06,,,0.75,0.000000,,2013-09-30 08:12:00,
2013-09-30 02:42:00,38.0,37.0,-100.00,SW,217,3.0,10.0,95,0.07,,,0.82,0.000000,,2013-09-30 08:42:00,
2013-09-30 02:52:00,38.0,37.0,-100.00,SW,217,3.0,10.0,95,0.07,,,0.82,0.000000,,2013-09-30 08:52:00,
2013-09-30 03:02:00,38.0,37.0,-100.00,SW,217,3.0,10.0,95,0.07,,,0.82,0.000000,,2013-09-30 09:02:00,
2013-09-30 03:11:00,38.0,37.0,-100.00,SW,217,3.0,10.0,95,0.07,,,0.82,0.000000,,2013-09-30 09:11:00,
2013-09-30 03:42:00,38.0,37.0,-100.00,SSW,207,4.0,9.0,96,0.08,,,0.90,0.000000,,2013-09-30 09:42:00,
2013-09-30 03:53:00,38.0,37.0,-100.00,SSW,207,4.0,9.0,96,0.08,,,0.90,0.000000,,2013-09-30 09:53:00,
2013-09-30 04:03:00,38.0,37.0,-100.00,SSW,207,4.0,9.0,96,0.08,,,0.90,0.000000,,2013-09-30 10:03:00,
2013-09-30 04:13:00,38.0,37.0,-100.00,SSW,207,4.0,9.0,96,0.08,,,0.90,0.000000,,2013-09-30 10:13:00,
2013-09-30 04:43:00,39.0,38.0,-100.00,East,101,2.0,8.0,95,0.06,,,0.96,0.000000,,2013-09-30 10:43:00,
2013-09-30 04:53:00,39.0,38.0,-100.00,East,101,2.0,8.0,95,0.06,,,0.96,0.000000,,2013-09-30 10:53:00,
2013-09-30 05:02:00,39.0,38.0,-100.00,East,101,2.0,8.0,95,0.06,,,0.96,0.000000,,2013-09-30 11:02:00,
2013-09-30 05:12:00,39.0,38.0,-100.00,East,101,2.0,8.0,95,0.06,,,0.96,0.000000,,2013-09-30 11:12:00,
2013-09-30 05:43:00,39.0,38.0,-100.00,South,184,2.0,6.0,96,0.05,,,1.01,0.000000,,2013-09-30 11:43:00,
2013-09-30 05:52:00,39.0,38.0,-100.00,South,184,2.0,6.0,96,0.05,,,1.01,0.000000,,2013-09-30 11:52:00,
2013-09-30 06:02:00,39.0,38.0,-100.00,South,184,2.0,6.0,96,0.05,,,1.01,0.000000,,2013-09-30 12:02:00,
2013-09-30 06:12:00,39.0,38.0,-100.00,South,184,2.0,6.0,96,0.05,,,1.01,0.000000,,2013-09-30 12:12:00,
2013-09-30 06:42:00,39.0,38.0,-100.00,NW,317,2.0,5.0,97,0.00,,,1.01,0.000000,,2013-09-30 12:42:00,
2013-09-30 06:52:00,39.0,38.0,-100.00,NW,317,2.0,5.0,97,0.00,,,1.01,0.000000,,2013-09-30 12:52:00,
2013-09-30 07:01:00,39.0,38.0,-100.00,NW,317,2.0,5.0,97,0.00,,,1.01,0.000000,,2013-09-30 13:01:00,
2013-09-30 07:11:00,39.0,38.0,-100.00,NW,317,2.0,5.0,97,0.00,,,1.01,0.000000,,2013-09-30 13:11:00,
2013-09-30 07:42:00,40.0,38.0,-100.00,SSW,193,5.0,10.0,94,0.00,,,1.01,0.000000,,2013-09-30 13:42:00,
2013-09-30 07:52:00,40.0,38.0,-100.00,SSW,193,5.0,10.0,94,0.00,,,1.01,0.000000,,2013-09-30 13:52:00,
2013-09-30 08:01:00,40.0,38.0,-100.00,SSW,193,5.0,10.0,94,0.00,,,1.01,0.000000,,2013-09-30 14:01:00,
2013-09-30 08:11:00,40.0,38.0,-100.00,SSW,193,5.0,10.0,94,0.00,,,1.01,0.000000,,2013-09-30 14:11:00,
2013-09-30 08:42:00,40.0,39.0,-100.00,NW,313,4.0,8.0,97,0.09,,,1.10,0.000000,,2013-09-30 14:42:00,
2013-09-30 08:53:00,40.0,39.0,-100.00,NW,313,4.0,8.0,97,0.09,,,1.10,0.000000,,2013-09-30 14:53:00,
2013-09-30 09:02:00,40.0,39.0,-100.00,NW,313,4.0,8.0,97,0.09,,,1.10,0.000000,,2013-09-30 15:02:00,
2013-09-30 09:11:00,40.0,39.0,-100.00,NW,313,4.0,8.0,97,0.09,,,1.10,0.000000,,2013-09-30 15:11:00,
2013-09-30 09:14:00,40.0,39.0,-100.00,South,188,4.0,9.0,96,0.06,,,1.16,1.000000,,2013-09-30 15:14:00,
2013-09-30 09:45:00,40.0,39.0,-100.00,South,188,4.0,9.0,96,0.06,,,1.16,1.000000,,2013-09-30 15:45:00,
2013-09-30 09:54:00,40.0,39.0,-100.00,South,188,4.0,9.0,96,0.06,,,1.16,1.000000,,2013-09-30 15:54:00,
2013-09-30 10:04:00,40.0,39.0,-100.00,South,188,4.0,9.0,96,0.06,,,1.16,1.000000,,2013-09-30 16:04:00,
2013-09-30 10:44:00,39.0,38.0,-100.00,SW,233,3.0,10.0,96,0.01,,,1.02,31.000000,,2013-09-30 16:44:00,
2013-09-30 10:53:00,39.0,38.0,-100.00,SW,233,3.0,10.0,96,0.01,,,1.02,31.000000,,2013-09-30 16:53:00,
2013-09-30 11:03:00,39.0,38.0,-100.00,SW,233,3.0,10.0,96,0.01,,,1.02,31.000000,,2013-09-30 17:03:00,
2013-09-30 11:13:00,39.0,38.0,-100.00,SW,233,3.0,10.0,96,0.01,,,1.02,31.000000,,2013-09-30 17:13:00,
2013-09-30 11:43:00,44.0,39.0,-100.00,SW,230,5.0,11.0,82,0.00,,,0.97,160.000000,,2013-09-30 17:43:00,
2013-09-30 11:53:00,44.0,39.0,-100.00,SW,230,5.0,11.0,82,0.00,,,0.97,160.000000,,2013-09-30 17:53:00,
2013-09-30 12:01:00,44.0,39.0,-100.00,SW,230,5.0,11.0,82,0.00,,,0.97,160.000000,,2013-09-30 18:01:00,
2013-09-30 12:12:00,44.0,39.0,-100.00,SW,230,5.0,11.0,82,0.00,,,0.97,160.000000,,2013-09-30 18:12:00,
2013-09-30 12:42:00,49.0,36.0,-100.00,SSW,197,6.0,13.0,61,0.00,,,0.93,511.000000,,2013-09-30 18:42:00,
2013-09-30 12:53:00,49.0,36.0,-100.00,SSW,197,6.0,13.0,61,0.00,,,0.93,511.000000,,2013-09-30 18:53:00,
2013-09-30 13:02:00,49.0,36.0,-100.00,SSW,197,6.0,13.0,61,0.00,,,0.93,511.000000,,2013-09-30 19:02:00,
2013-09-30 13:12:00,49.0,36.0,-100.00,SSW,197,6.0,13.0,61,0.00,,,0.93,511.000000,,2013-09-30 19:12:00,
2013-09-30 13:42:00,52.0,31.0,-100.00,South,172,6.0,12.0,44,0.00,,,0.91,653.000000,,2013-09-30 19:42:00,
2013-09-30 13:53:00,52.0,31.0,-100.00,South,172,6.0,12.0,44,0.00,,,0.91,653.000000,,2013-09-30 19:53:00,
2013-09-30 14:02:00,52.0,31.0,-100.00,South,172,6.0,12.0,44,0.00,,,0.91,653.000000,,2013-09-30 20:02:00,
2013-09-30 14:12:00,52.0,31.0,-100.00,South,172,6.0,12.0,44,0.00,,,0.91,653.000000,,2013-09-30 20:12:00,
2013-09-30 14:43:00,54.0,30.0,-100.00,South,181,6.0,15.0,39,0.00,,,0.89,792.000000,,2013-09-30 20:43:00,
2013-09-30 14:53:00,54.0,30.0,-100.00,South,181,6.0,15.0,39,0.00,,,0.89,792.000000,,2013-09-30 20:53:00,
2013-09-30 15:02:00,54.0,30.0,-100.00,South,181,6.0,15.0,39,0.00,,,0.89,792.000000,,2013-09-30 21:02:00,
2013-09-30 15:11:00,54.0,30.0,-100.00,South,181,6.0,15.0,39,0.00,,,0.89,792.000000,,2013-09-30 21:11:00,
2013-09-30 15:44:00,47.0,29.0,-100.00,SW,215,6.0,17.0,49,0.00,,,0.88,326.000000,,2013-09-30 21:44:00,
2013-09-30 15:54:00,47.0,29.0,-100.00,SW,215,6.0,17.0,49,0.00,,,0.88,326.000000,,2013-09-30 21:54:00,
2013-09-30 16:03:00,47.0,29.0,-100.00,SW,215,6.0,17.0,49,0.00,,,0.88,326.000000,,2013-09-30 22:03:00,
2013-09-30 16:13:00,47.0,29.0,-100.00,SW,215,6.0,17.0,49,0.00,,,0.88,326.000000,,2013-09-30 22:13:00,
2013-09-30 16:44:00,48.0,30.0,-100.00,SW,218,5.0,14.0,50,0.00,,,0.86,313.000000,,2013-09-30 22:44:00,
2013-09-30 16:54:00,48.0,30.0,-100.00,SW,218,5.0,14.0,50,0.00,,,0.86,313.000000,,2013-09-30 22:54:00,
2013-09-30 17:03:00,48.0,30.0,-100.00,SW,218,5.0,14.0,50,0.00,,,0.86,313.000000,,2013-09-30 23:03:00,
2013-09-30 17:12:00,48.0,30.0,-100.00,SW,218,5.0,14.0,50,0.00,,,0.86,313.000000,,2013-09-30 23:12:00,
2013-09-30 17:43:00,46.0,33.0,-100.00,South,184,5.0,16.0,60,0.00,,,0.82,177.000000,,2013-09-30 23:43:00,
2013-09-30 17:54:00,46.0,33.0,-100.00,South,184,5.0,16.0,60,0.00,,,0.82,177.000000,,2013-09-30 23:54:00,
2013-09-30 18:02:00,46.0,33.0,-100.00,South,184,5.0,16.0,60,0.00,,,0.82,177.000000,,2013-10-01 00:02:00,
2013-09-30 18:12:00,46.0,33.0,-100.00,South,184,5.0,16.0,60,0.00,,,0.82,177.000000,,2013-10-01 00:12:00,
2013-09-30 18:43:00,45.0,35.0,-100.00,SW,229,5.0,11.0,67,0.00,,,-99.99,227.000000,,2013-10-01 00:43:00,
2013-09-30 18:52:00,45.0,35.0,-100.00,SW,229,5.0,11.0,67,0.00,,,-99.99,227.000000,,2013-10-01 00:52:00,
2013-09-30 19:02:00,45.0,35.0,-100.00,SW,229,5.0,11.0,67,0.00,,,-99.99,227.000000,,2013-10-01 01:02:00,
2013-09-30 19:12:00,45.0,35.0,-100.00,SW,229,5.0,11.0,67,0.00,,,-99.99,227.000000,,2013-10-01 01:12:00,
2013-09-30 19:42:00,42.0,38.0,-100.00,NW,305,3.0,10.0,87,0.02,,,0.77,115.000000,,2013-10-01 01:42:00,
2013-09-30 19:52:00,42.0,38.0,-100.00,NW,305,3.0,10.0,87,0.02,,,0.77,115.000000,,2013-10-01 01:52:00,
2013-09-30 20:02:00,42.0,38.0,-100.00,NW,305,3.0,10.0,87,0.02,,,0.77,115.000000,,2013-10-01 02:02:00,
2013-09-30 20:12:00,42.0,38.0,-100.00,NW,305,3.0,10.0,87,0.02,,,0.77,115.000000,,2013-10-01 02:12:00,
2013-09-30 20:43:00,41.0,39.0,-100.00,WNW,292,3.0,7.0,91,0.00,,,0.73,28.000000,,2013-10-01 02:43:00,
2013-09-30 20:52:00,41.0,39.0,-100.00,WNW,292,3.0,7.0,91,0.00,,,0.73,28.000000,,2013-10-01 02:52:00,
2013-09-30 21:02:00,41.0,39.0,-100.00,WNW,292,3.0,7.0,91,0.00,,,0.73,28.000000,,2013-10-01 03:02:00,
2013-09-30 21:12:00,41.0,39.0,-100.00,WNW,292,3.0,7.0,91,0.00,,,0.73,28.000000,,2013-10-01 03:12:00,
2013-09-30 21:14:00,39.0,37.0,-100.00,North,1,2.0,4.0,94,0.00,,,0.69,1.000000,,2013-10-01 03:14:00,
2013-09-30 21:44:00,39.0,37.0,-100.00,North,1,2.0,4.0,94,0.00,,,0.69,1.000000,,2013-10-01 03:44:00,
2013-09-30 21:55:00,39.0,37.0,-100.00,North,1,2.0,4.0,94,0.00,,,0.69,1.000000,,2013-10-01 03:55:00,
2013-09-30 22:04:00,39.0,37.0,-100.00,North,1,2.0,4.0,94,0.00,,,0.69,1.000000,,2013-10-01 04:04:00,